Weather History for PAOM - December, 2011

Change the Weather History Date:

Friday, December 23, 2011

  Actual Average Record
Temperature  
Mean Temperature -5 °F -  
Max Temperature 4 °F 16 °F 37 °F (1985)
Min Temperature -13 °F - -32 °F (1994)
Degree Days  
Heating Degree Days 70 57  
Month to date heating degree days 1136 1259  
Since 1 July heating degree days 5605 5357  
Cooling Degree Days 0    
Month to date cooling degree days 0  
Year to date cooling degree days 0  
Moisture  
Dew Point -12 °F    
Average Humidity 0    
Maximum Humidity 0    
Minimum Humidity 0    
Precipitation  
Precipitation 0.00 in 0.04 in 0.52 in (1921)
Month to date precipitation 2.16 0.80  
Year to date precipitation 18.44 16.53  
Snow  
Snow 0.00 in 0.40 in 5.40 in (2010)
Month to date snowfall 27.4 10.6  
Since 1 July snowfall 43.9 27.9  
Snow Depth 26.00 in    
Sea Level Pressure  
Sea Level Pressure 29.74 in    
Wind  
Wind Speed 12 mph (NNW)    
Max Wind Speed 29 mph    
Max Gust Speed 35 mph    
Visibility 10 miles    
Events      
T = Trace of Precipitation, MM = Missing Value Source: NWS Daily Summary

Daily Weather History Graph

Daily Weather History Graph

Search for Another Location

Airport or City:

Trip Planner

Search our weather history database for the weather conditions in past years. The results will help you decide how hot, cold, wet, or windy it might be!

Date:

Astronomy

Dec. 23, 2011 Rise Set
Actual Time 12:03 PM AKST 3:58 PM AKST
Civil Twilight 10:41 AM AKST 5:20 PM AKST
Nautical Twilight 9:30 AM AKST 6:31 PM AKST
Astronomical Twilight 8:29 AM AKST 7:32 PM AKST
Moon 11:13 AM AKST (12/23) 3:13 PM AKST (12/23)
Length of Visible Light 6h 39m
Length of Day
3h 54m
Waning Crescent, 1% of the Moon is Illuminated
Dec 23
Waning Crescent
Dec 24
New
Dec 31
First Quarter
Jan 8
Full
Jan 16
Last Quarter

Hourly Weather History & Observations

Time (AKST) Temp. Windchill Dew Point Humidity Pressure Visibility Wind Dir Wind Speed Gust Speed Precip Events Conditions
12:53 AM 3.9 °F -10.4 °F -6.0 °F 64% 29.63 in 10.0 mi North 9.2 mph - N/A   Overcast
1:53 AM 1.9 °F -9.2 °F -7.1 °F 66% 29.64 in 10.0 mi NNW 5.8 mph - N/A   Overcast
3:53 AM -0.9 °F -21.9 °F -9.9 °F 66% 29.65 in 10.0 mi NNW 17.3 mph 20.7 mph N/A   Scattered Clouds
4:53 AM -0.0 °F -19.4 °F -11.0 °F 60% 29.66 in 10.0 mi NW 15.0 mph - N/A   Scattered Clouds
5:53 AM -0.9 °F -20.6 °F -11.0 °F 62% 29.66 in 10.0 mi North 15.0 mph - N/A   Scattered Clouds
6:53 AM -0.9 °F -20.6 °F -11.0 °F 62% 29.66 in 10.0 mi North 15.0 mph - N/A   Scattered Clouds
7:53 AM -0.9 °F -18.3 °F -9.9 °F 66% 29.68 in 10.0 mi North 11.5 mph - N/A   Scattered Clouds
8:53 AM -2.0 °F -21.9 °F -9.0 °F 72% 29.70 in 10.0 mi NNE 15.0 mph - N/A   Scattered Clouds
9:53 AM -2.0 °F -25.5 °F -9.9 °F 69% 29.72 in 10.0 mi North 21.9 mph 26.5 mph N/A   Clear
10:53 AM -2.0 °F -20.5 °F -9.9 °F 69% 29.73 in 10.0 mi North 12.7 mph - N/A   Clear
11:53 AM -4.0 °F -14.6 °F -11.9 °F 69% 29.74 in 10.0 mi ENE 4.6 mph - N/A   Clear
12:53 PM -2.0 °F -25.0 °F -9.9 °F 69% 29.76 in 9.0 mi North 20.7 mph - N/A   Clear
1:53 PM -4.0 °F -14.6 °F -11.0 °F 72% 29.77 in 10.0 mi North 4.6 mph - N/A   Clear
2:53 PM -2.0 °F -19.6 °F -11.0 °F 66% 29.79 in 10.0 mi NNW 11.5 mph - N/A   Partly Cloudy
3:53 PM -6.0 °F -24.6 °F -13.0 °F 72% 29.79 in 10.0 mi North 11.5 mph - N/A   Partly Cloudy
4:53 PM -4.0 °F -16.3 °F -13.0 °F 65% 29.79 in 10.0 mi NW 5.8 mph - N/A   Scattered Clouds
5:53 PM -5.1 °F -21.5 °F -11.9 °F 72% 29.80 in 10.0 mi North 9.2 mph - N/A   Partly Cloudy
6:53 PM -4.0 °F -17.8 °F -13.0 °F 65% 29.80 in 10.0 mi NW 6.9 mph - N/A   Partly Cloudy
7:53 PM -5.1 °F -21.5 °F -13.0 °F 69% 29.80 in 10.0 mi WNW 9.2 mph - N/A   Partly Cloudy
8:53 PM -6.0 °F -25.5 °F -15.0 °F 65% 29.82 in 10.0 mi NNW 12.7 mph 21.9 mph N/A   Clear
9:53 PM -9.0 °F -31.7 °F -17.0 °F 68% 29.82 in 10.0 mi North 16.1 mph - N/A   Clear
10:53 PM -11.0 °F -29.9 °F -18.0 °F 71% 29.84 in 10.0 mi NNW 10.4 mph 23.0 mph N/A   Clear
11:53 PM -11.9 °F -23.8 °F -18.9 °F 71% 29.85 in 10.0 mi West 4.6 mph - N/A   Clear